Flight Track Log - Related Links

Times and Time Zones

All times are in EDT time to prevent confusion due to time zone crossing. See the N68C flight status page for this flight to view local times or setup timezone preferences in your user account.

Time Position Orientation Groundspeed Altitude Reporting Facility
EDT Latitude Longitude Course Direction KTS MPH feet Rate Location/Type
Tue 01:29:00 PM 32.2968 -82.4801 320° Northwest  Level FlightAware Approximate
Tue 01:30:00 PM 32.3252 -82.5085 320° Northwest  Level FlightAware Approximate
Tue 01:36:40 PM 32.3183 -82.5214 320° Northwest 127 146 4,500  Level Jacksonville Center
Tue 01:37:40 PM 32.3414 -82.5458 318° Northwest 116 133 5,200 605 Climbing Jacksonville Center
Tue 01:38:39 PM 32.3644 -82.5681 321° Northwest 110 127 5,700 444 Climbing Jacksonville Center
Tue 01:39:28 PM 32.3831 -82.5878 318° Northwest 111 128 6,000 440 Climbing Atlanta Center
Tue 01:40:28 PM 32.4061 -82.6094 322° Northwest 111 128 6,500 500 Climbing Atlanta Center
Tue 01:41:28 PM 32.4317 -82.6386 316° Northwest 120 138 7,000 500 Climbing Atlanta Center
Tue 01:42:28 PM 32.4589 -82.6553 333° Northwest 120 138 7,500 450 Climbing Atlanta Center
Tue 01:43:28 PM 32.4864 -82.6772 326° Northwest 115 132 7,900 250 Climbing Atlanta Center
Tue 01:44:28 PM 32.5136 -82.6989 326° Northwest 115 132 8,000 33 Climbing Atlanta Center
Tue 01:46:28 PM 32.5811 -82.7544 325° Northwest 137 158 8,000  Level Atlanta Center
Tue 01:47:28 PM 32.6128 -82.7836 322° Northwest 137 158 8,000  Level Atlanta Center
Tue 01:48:28 PM 32.6442 -82.8103 324° Northwest 137 158 8,000  Level Atlanta Center
Tue 01:49:28 PM 32.6717 -82.8394 318° Northwest 137 158 8,000  Level Atlanta Center
Tue 01:51:31 PM 32.7333 -82.9000 320° Northwest 143 165 8,000  Level Atlanta TRACON
Tue 01:52:25 PM 32.7667 -82.9333 320° Northwest 140 161 8,000  Level Atlanta TRACON
Tue 01:53:25 PM 32.8000 -82.9500 337° Northwest 142 163 8,000  Level Atlanta TRACON
Tue 01:54:25 PM 32.8167 -82.9833 301° West 138 159 8,000  Level Atlanta TRACON
Tue 01:55:25 PM 32.8500 -83.0167 320° Northwest 142 163 8,000  Level Atlanta TRACON
Tue 01:56:25 PM 32.8833 -83.0500 320° Northwest 145 167 8,000  Level Atlanta TRACON
Tue 01:57:25 PM 32.9167 -83.0667 337° Northwest 142 163 8,000  Level Atlanta TRACON
Tue 01:58:25 PM 32.9500 -83.1000 320° Northwest 143 165 8,000  Level Atlanta TRACON
Tue 01:59:31 PM 32.9833 -83.1333 320° Northwest 146 168 8,000  Level Atlanta TRACON
Tue 02:00:25 PM 33.0167 -83.1500 337° Northwest 144 166 8,000  Level Atlanta TRACON
Tue 02:01:25 PM 33.0500 -83.1667 337° Northwest 143 165 8,000  Level Atlanta TRACON
Tue 02:02:31 PM 33.1000 -83.2000 331° Northwest 147 169 8,000  Level Atlanta TRACON
Tue 02:03:25 PM 33.1333 -83.2167 337° Northwest 147 169 8,000  Level Atlanta TRACON
Tue 02:04:25 PM 33.1667 -83.2333 337° Northwest 149 171 8,000 -48 Level Atlanta TRACON
Tue 02:05:31 PM 33.2000 -83.2500 337° Northwest 146 168 7,900 -238 Descending Atlanta TRACON
Tue 02:06:31 PM 33.2333 -83.2833 320° Northwest 151 174 7,500 -350 Descending Atlanta TRACON
Tue 02:07:31 PM 33.2667 -83.3000 337° Northwest 147 169 7,200 -368 Descending Atlanta TRACON
Tue 02:08:25 PM 33.3000 -83.3333 320° Northwest 146 168 6,800 -421 Descending Atlanta TRACON
Tue 02:09:25 PM 33.3500 -83.3500 344° North 154 177 6,400 -350 Descending Atlanta TRACON
Tue 02:10:25 PM 33.3833 -83.3833 320° Northwest 147 169 6,100 -333 Descending Atlanta TRACON
Tue 02:11:31 PM 33.4167 -83.4167 320° Northwest 149 171 5,700 -286 Descending Atlanta TRACON
Tue 02:12:31 PM 33.4500 -83.4500 320° Northwest 147 169 5,500 -350 Descending Atlanta TRACON
Tue 02:13:31 PM 33.4833 -83.4667 337° Northwest 149 171 5,000 -450 Descending Atlanta TRACON
Tue 02:14:31 PM 33.5000 -83.5167 292° West 147 169 4,600 -400 Descending Atlanta TRACON
Tue 02:15:31 PM 33.5333 -83.5333 337° Northwest 146 168 4,200 -316 Descending Atlanta TRACON
Tue 02:16:25 PM 33.5667 -83.5667 320° Northwest 143 165 4,000 -100 Descending Atlanta TRACON
Tue 02:17:31 PM 33.6000 -83.6000 320° Northwest 135 155 4,000  Level Atlanta TRACON
Tue 02:18:31 PM 33.6333 -83.6167 337° Northwest 134 154 4,000  Level Atlanta TRACON
Tue 02:19:32 PM 33.6500 -83.6500 301° West 134 154 4,000  Level Atlanta TRACON
Tue 02:21:00 PM 33.6874 -83.6852 322° Northwest  Level FlightAware Approximate
Tue 02:21:32 PM 33.7333 -83.6833 322° Northwest 140 161 4,000  Level Atlanta TRACON
Tue 02:23:31 PM 33.8000 -83.7333 328° Northwest 138 159 4,000  Level Atlanta TRACON
Tue 02:25:00 PM 33.8327 -83.7757 313° West  Level FlightAware Approximate
Tue 02:26:32 PM 33.8833 -83.8000 313° West 132 152 4,000  Level Atlanta TRACON
Tue 02:27:32 PM 33.9167 -83.8333 320° Northwest 155 178 3,300 -750 Descending Atlanta TRACON
Tue 02:28:32 PM 33.9333 -83.8833 292° West 166 191 2,500 -800 Descending Atlanta TRACON
Tue 02:29:32 PM 33.9667 -83.9167 320° Northwest 158 182 1,700 -800 Descending Atlanta TRACON
Tue 02:31:00 PM 33.9667 -83.9500 322° Northwest  Level FlightAware Approximate
Tue 02:38:00 PM 33.9781 -83.9624 322° Northwest  Level Estimated
Tue 02:39:00 PM 33.9781 -83.9624 322° Northwest  Level Estimated

Login

Don't have an account? Register now (free) for customized features, flight alerts, and more!